Regional Weather Roundup
Issued by NWS

Home | Current Version | Previous Version | Graphics & Text | Print | Product List | Glossary Off
Versions: 1 2 3 4 5 6 7 8 9 10 11 12 13 14 15 16 17 18 19 20 21 22 23 24 25 26 27 28 29 30 31 32 33 34 35 36 37 38 39 40 41 42 43 44 45 46 47 48 49 50

000
ASUS43 KDTX 270010
RWRMI
MICHIGAN HOURLY REGIONAL WEATHER ROUNDUP
NATIONAL WEATHER SERVICE DETROIT/PONTIAC MI
800 PM EDT SUN APR 26 2015

NOTE: "FAIR" INDICATES FEW OR NO CLOUDS BELOW 12,000 FEET WITH NO
SIGNIFICANT WEATHER AND/OR OBSTRUCTION TO VISIBILITY.

MIZ047>049-052>055-059>063-066>070-074>076-081>083-270100-
SOUTHEAST LOWER MICHIGAN

CITY           SKY/WX    TMP DP  RH WIND       PRES   REMARKS
ADRIAN         PTCLDY    53  30  41 NE8       29.90R
6HR MIN TEMP:  53; 6HR MAX TEMP:  59;

ALMA           CLOUDY    55  27  33 N12       29.92R
ANN ARBOR      PTCLDY    54  28  36 NE12      29.89S
BAD AXE        MOCLDY    45  31  58 N7G16     29.93S
6HR MIN TEMP:  44; 6HR MAX TEMP:  52;

CARO           CLEAR     47  33  59 CALM      29.93R
DETROIT CITY   CLEAR     48  32  53 E9        29.90S
6HR MIN TEMP:  48; 6HR MAX TEMP:  56;

DETROIT        PTCLDY    54  29  38 N8        29.90R
6HR MIN TEMP:  54; 6HR MAX TEMP:  60;

FLINT          CLEAR     54  27  35 N13       29.91S
6HR MIN TEMP:  54; 6HR MAX TEMP:  59;

GROSSE ILE     PTCLDY    50  34  53 NE10      29.88S
HILLSDALE      CLOUDY    54  28  36 N7        29.89S
HOWELL         CLOUDY    53  29  40 N3        29.89S
6HR MIN TEMP:  53; 6HR MAX TEMP:  56;


CITY           SKY/WX    TMP DP  RH WIND       PRES   REMARKS
JACKSON        MOCLDY    55  27  34 N12       29.89S
6HR MIN TEMP:  53; 6HR MAX TEMP:  58;

LAMBERTVILLE   MOCLDY    55  30  38 NE5       29.90R
LANSING        CLOUDY    55  28  35 NE9       29.91R
6HR MIN TEMP:  54; 6HR MAX TEMP:  60;

LAPEER         FAIR      50  28  41 N8        29.90R
MASON          CLOUDY    54  27  35 N9        29.90R
MONROE         MOCLDY    55  28  35 CALM      29.88R
MT. CLEMENS    PTCLDY    47  31  55 NE8       29.87S
6HR MIN TEMP:  47; 6HR MAX TEMP:  55;

PONTIAC        PTCLDY    52  28  39 N9        29.89R
6HR MIN TEMP:  51; 6HR MAX TEMP:  56;

PORT HOPE        N/A     43  34  70 N7        29.91S
6HR MIN TEMP:  41; 6HR MAX TEMP:  44;

PORT HURON     CLEAR     43  30  61 N9        29.92S
TRI CITIES     MOCLDY    48  34  58 NE13      29.94R
6HR MIN TEMP:  48; 6HR MAX TEMP:  58;

MIDLAND        CLOUDY    47  33  57 E9        29.93R
TROY           PTCLDY    53  28  38 N7        29.91R
SAGINAW HB     PTCLDY    48  32  53 N12       29.93R
$$
MIZ043>046-050>051-056>058-064>065-071>073-077>080-270100-
SOUTHWEST LOWER MICHIGAN

CITY           SKY/WX    TMP DP  RH WIND       PRES   REMARKS
BATTLE CREEK   CLOUDY    56  31  38 NW16      29.90S
6HR MIN TEMP:  54; 6HR MAX TEMP:  59;

BENTON HARBOR  CLEAR     43  29  57 N9G17     29.97S
6HR MIN TEMP:  42; 6HR MAX TEMP:  47;

BIG RAPIDS     CLEAR     50  29  43 NE13      29.95R
6HR MIN TEMP:  50; 6HR MAX TEMP:  58;

COLDWATER      CLOUDY    54  27  36 NE6       29.89F
6HR MIN TEMP:  53; 6HR MAX TEMP:  57;

FREMONT        FAIR      50  25  37 N12G20    29.96R
HOLLAND        CLEAR     52  28  39 NW10      29.95S
6HR MIN TEMP:  52; 6HR MAX TEMP:  57;

GRAND RAPIDS   MOCLDY    55  27  34 N17G28    29.91S
6HR MIN TEMP:  55; 6HR MAX TEMP:  61;

IONIA          MOCLDY    55  25  31 N8        29.89S
KALAMAZOO      CLEAR     54  29  38 NW12      29.92S
6HR MIN TEMP:  54; 6HR MAX TEMP:  60;

LUDINGTON      CLEAR     51  32  48 N8G18     30.01S
6HR MIN TEMP:  51; 6HR MAX TEMP:  53;

MARSHALL       MOCLDY    54  28  37 NW5       29.89S
MOUNT PLEASANT CLOUDY    54  28  37 N8        29.92S
6HR MIN TEMP:  53; 6HR MAX TEMP:  58;

MUSKEGON       PTCLDY    52  21  29 N15       29.96S
6HR MIN TEMP:  52; 6HR MAX TEMP:  58;

SOUTH HAVEN    CLEAR     46  29  50 N10G18    29.95F
$$
MIZ016>042-270100-
NORTHERN LOWER MICHIGAN

CITY           SKY/WX    TMP DP  RH WIND       PRES   REMARKS
BEAVER ISLAND  CLOUDY    45  31  58 N9G17     30.04R
6HR MIN TEMP:  44; 6HR MAX TEMP:  51;

BELLAIRE       CLOUDY    48  31  52 N10G20    30.01R
6HR MIN TEMP:  48; 6HR MAX TEMP:  53;

CADILLAC       CLEAR     46  30  53 N10G16    29.97S
CHARLEVOIX     PTCLDY    40  33  74 N10       30.06R WCI  34
6HR MIN TEMP:  40; 6HR MAX TEMP:  48;

FRANKFORT      CLEAR     48  29  48 N7        30.03R
GAYLORD        MOCLDY    45  31  58 VRB6      29.97R
6HR MIN TEMP:  45; 6HR MAX TEMP:  52;

GRAYLING       CLOUDY    47  30  51 N6        29.97S
6HR MIN TEMP:  47; 6HR MAX TEMP:  54;

HARBOR SPRINGS MOCLDY    46  31  54 N9        30.01R
HOUGHTON LAKE  CLOUDY    49  29  46 N14G22    29.95R
6HR MIN TEMP:  49; 6HR MAX TEMP:  55;

MANISTEE       CLEAR     48  28  46 NE9       30.02S
OSCODA         CLOUDY    49  32  51 N10       29.93S
PELLSTON       MOCLDY    46  31  55 NW14G23   30.01R
6HR MIN TEMP:  46; 6HR MAX TEMP:  53;

ROGERS CITY    CLOUDY    45  32  60 NW14G22   29.98S
TRAVERSE CITY  PTCLDY    46  31  55 N13G20    30.01R
6HR MIN TEMP:  46; 6HR MAX TEMP:  52;

$$
MIZ007>008-015-270100-
EASTERN UPPER MICHIGAN

CITY           SKY/WX    TMP DP  RH WIND       PRES   REMARKS
KINROSS        CLOUDY    41  34  75 NW15      29.99S
6HR MIN TEMP:  39; 6HR MAX TEMP:  46;

MACKINAC ISLAN CLOUDY    45  32  60 N12G17    30.00S
6HR MIN TEMP:  45; 6HR MAX TEMP:  51;

NEWBERRY       CLOUDY    41  31  68 N12G21    30.04S
6HR MIN TEMP:  41; 6HR MAX TEMP:  45;

S. S. MARIE    CLOUDY    39  31  72 NW9       30.00S WCI  33
6HR MIN TEMP:  39; 6HR MAX TEMP:  46;

MUNISING         N/A     38  30  73 N9        30.09F WCI  31
6HR MIN TEMP:  38; 6HR MAX TEMP:  40;

$$
MIZ004>006-011>014-085-270100-
CENTRAL UPPER MICHIGAN

CITY           SKY/WX    TMP DP  RH WIND       PRES   REMARKS
MANISTIQUE     CLOUDY    44  31  60 N13G23    30.05R
ESCANABA       CLEAR     46  27  46 N13G20    30.07S
6HR MIN TEMP:  46; 6HR MAX TEMP:  54;

MENOMINEE      CLEAR     46  34  61 E13       30.04S
6HR MIN TEMP:  46; 6HR MAX TEMP:  52;

SAWYER-GWINN   CLEAR     45  28  53 N14G21    30.09S
$$
MIZ001>003-009>011-084-270100-
WESTERN UPPER MICHIGAN

CITY           SKY/WX    TMP DP  RH WIND       PRES   REMARKS
IRON MOUNTAIN  CLEAR     52  27  38 NE14G21   30.06R
6HR MIN TEMP:  52; 6HR MAX TEMP:  58;

HOUGHTON       CLEAR     48  27  44 NW7       30.12S
6HR MIN TEMP:  47; 6HR MAX TEMP:  50;

COPPER HARBOR    N/A     45  30  55 N13       30.11F
6HR MIN TEMP:  38; 6HR MAX TEMP:  46;

IRONWOOD       CLEAR     48  27  43 N5        30.12S
6HR MIN TEMP:  45; 6HR MAX TEMP:  48;

$$

ABBREVIATIONS USED IN REMARKS
   TC - TEMPERATURE IN CELSIUS
  WCI - WIND CHILL INDEX
   HX - HEAT INDEX
  VSB - VISIBILITY




USA.gov is the U.S. government's official web portal to all federal, state and local government web resources and services.